| time (UTC) | temp C | wind direction | speed KPH | gust KPH | rain 1hr cm | rain 24hr cm | rain mn cm | humidity % | barometer mb |
| 20260506134844 | 10 | 317 | 4.8 | 11.3 | 0.00 | 3.17 | 1.70 | 95 | 1015.2 |
| 20260506134014 | 9 | 0 | 4.8 | 14.5 | 0.00 | 3.17 | 1.70 | 94 | 1014.9 |
| 20260506133845 | 9 | 0 | 4.8 | 14.5 | 0.00 | 3.17 | 1.70 | 94 | 1014.9 |
| 20260506132845 | 9 | 344 | 6.4 | 8.0 | 0.00 | 3.17 | 1.70 | 95 | 1015.2 |
| 20260506131845 | 9 | 0 | 0.0 | 4.8 | 0.00 | 3.17 | 1.70 | 95 | 1014.9 |
| 20260506130844 | 9 | 299 | 1.6 | 14.5 | 0.00 | 3.17 | 1.70 | 95 | 1015.0 |
| 20260506125845 | 9 | 11 | 4.8 | 11.3 | 0.00 | 3.17 | 1.70 | 96 | 1014.6 |
| 20260506124845 | 9 | 2 | 3.2 | 12.9 | 0.00 | 3.17 | 1.70 | 96 | 1014.6 |
| 20260506123845 | 8 | 0 | 0.0 | 8.0 | 0.00 | 3.20 | 1.70 | 96 | 1014.5 |
| 20260506122845 | 8 | 0 | 0.0 | 6.4 | 0.00 | 3.20 | 1.70 | 96 | 1014.6 |
| 20260506121847 | 8 | 0 | 0.0 | 0.0 | 0.00 | 3.20 | 1.70 | 96 | 1014.5 |
| 20260506120844 | 8 | 0 | 0.0 | 1.6 | 0.00 | 3.20 | 1.70 | 96 | 1014.8 |
| 20260506120016 | 8 | 0 | 0.0 | 0.0 | 0.00 | 3.20 | 1.70 | 96 | 1014.7 |
| 20260506115845 | 8 | 0 | 0.0 | 0.0 | 0.00 | 3.20 | 1.70 | 96 | 1014.7 |
| 20260506114845 | 8 | 0 | 0.0 | 0.0 | 0.00 | 3.20 | 1.70 | 96 | 1014.4 |
| 20260506113845 | 8 | 338 | 0.0 | 4.8 | 0.00 | 3.20 | 1.70 | 97 | 1014.4 |
| 20260506112844 | 8 | 0 | 0.0 | 3.2 | 0.03 | 3.20 | 1.70 | 97 | 1014.5 |
| 20260506111845 | 8 | 306 | 1.6 | 12.9 | 0.05 | 3.20 | 1.70 | 97 | 1014.2 |
| 20260506110844 | 8 | 320 | 4.8 | 9.7 | 0.08 | 3.20 | 1.70 | 97 | 1014.3 |
| 20260506110217 | 8 | 0 | 0.0 | 12.9 | 0.08 | 3.20 | 1.70 | 97 | 1013.8 |
| 20260506110015 | 8 | 0 | 0.0 | 12.9 | 0.08 | 3.20 | 1.70 | 97 | 1013.8 |
| 20260506105845 | 8 | 0 | 0.0 | 12.9 | 0.08 | 3.20 | 1.70 | 97 | 1013.8 |
| 20260506104844 | 8 | 19 | 3.2 | 8.0 | 0.15 | 3.20 | 1.70 | 97 | 1013.4 |
| 20260506103845 | 7 | 21 | 3.2 | 8.0 | 0.20 | 3.20 | 1.70 | 97 | 1013.3 |
| 20260506102844 | 7 | 351 | 1.6 | 8.0 | 0.20 | 3.17 | 1.65 | 97 | 1013.4 |
| 20260506101846 | 8 | 0 | 0.0 | 6.4 | 0.20 | 3.15 | 1.63 | 97 | 1013.8 |
| 20260506100844 | 7 | 0 | 0.0 | 11.3 | 0.18 | 3.12 | 1.63 | 97 | 1014.2 |
| 20260506095845 | 7 | 335 | 8.0 | 11.3 | 0.20 | 3.10 | 1.60 | 97 | 1014.2 |
| 20260506094845 | 7 | 359 | 4.8 | 9.7 | 0.18 | 3.05 | 1.52 | 96 | 1014.2 |
| 20260506093845 | 7 | 331 | 3.2 | 6.4 | 0.18 | 2.97 | 1.47 | 96 | 1014.2 |
| 20260506092845 | 7 | 0 | 0.0 | 6.4 | 0.18 | 2.95 | 1.45 | 96 | 1014.0 |
| 20260506092002 | 7 | 359 | 6.4 | 9.7 | 0.25 | 2.92 | 1.42 | 96 | 1013.9 |
| 20260506091845 | 7 | 359 | 6.4 | 9.7 | 0.25 | 2.92 | 1.42 | 96 | 1013.9 |
| 20260506090845 | 7 | 1 | 8.0 | 11.3 | 0.33 | 2.92 | 1.42 | 96 | 1013.8 |
| 20260506084845 | 7 | 0 | 6.4 | 12.9 | 0.41 | 2.84 | 1.35 | 96 | 1014.0 |
| 20260506083845 | 7 | 355 | 3.2 | 12.9 | 0.43 | 2.79 | 1.27 | 96 | 1014.3 |
| 20260506082844 | 7 | 352 | 12.9 | 19.3 | 0.43 | 2.74 | 1.24 | 96 | 1014.0 |
| 20260506081845 | 7 | 21 | 11.3 | 19.3 | 0.41 | 2.67 | 1.17 | 96 | 1014.0 |
| 20260506080845 | 8 | 12 | 6.4 | 16.1 | 0.38 | 2.59 | 1.07 | 96 | 1014.0 |
| 20260506072844 | 8 | 12 | 6.4 | 12.9 | 0.33 | 2.29 | 0.79 | 96 | 1013.5 |
| 20260506071845 | 8 | 335 | 6.4 | 11.3 | 0.36 | 2.26 | 0.74 | 96 | 1013.6 |
| 20260506070845 | 8 | 333 | 6.4 | 11.3 | 0.33 | 2.18 | 0.69 | 96 | 1013.6 |
| 20260506061845 | 10 | 351 | 3.2 | 11.3 | 0.18 | 1.91 | 0.38 | 96 | 1013.9 |
| 20260506060845 | 10 | 351 | 6.4 | 11.3 | 0.13 | 1.85 | 0.36 | 96 | 1014.0 |
| 20260506050845 | 10 | 0 | 0.0 | 11.3 | 0.18 | 1.70 | 0.20 | 96 | 1014.7 |
| 20260506044845 | 10 | 5 | 6.4 | 9.7 | 0.23 | 1.68 | 0.18 | 96 | 1015.0 |
| 20260506043845 | 10 | 12 | 4.8 | 8.0 | 0.23 | 1.65 | 0.15 | 96 | 1014.9 |
| 20260506042844 | 10 | 359 | 4.8 | 9.7 | 0.18 | 1.60 | 0.08 | 96 | 1015.0 |
| 20260506041845 | 10 | 357 | 8.0 | 1.6 | 0.23 | 1.57 | 0.08 | 96 | 1015.1 |
| 20260506040845 | 10 | 7 | 6.4 | 6.4 | 0.25 | 1.52 | 0.00 | 96 | 1015.3 |
| 20260506035845 | 10 | 0 | 0.0 | 0.0 | 0.25 | 1.50 | 1.50 | 96 | 1015.2 |
| 20260506034845 | 10 | 14 | 3.2 | 6.4 | 0.23 | 1.45 | 1.45 | 96 | 1015.3 |
| 20260506033845 | 10 | 0 | 0.0 | 9.7 | 0.25 | 1.42 | 1.42 | 96 | 1015.6 |
| 20260506032844 | 10 | 0 | 0.0 | 0.0 | 0.25 | 1.40 | 1.40 | 96 | 1016.1 |
| 20260506031845 | 10 | 237 | 1.6 | 0.0 | 0.25 | 1.35 | 1.35 | 96 | 1015.6 |
| 20260506025845 | 10 | 355 | 3.2 | 8.0 | 0.25 | 1.22 | 1.22 | 96 | 1015.0 |
| 20260506024844 | 10 | 335 | 3.2 | 4.8 | 0.25 | 1.19 | 1.19 | 96 | 1015.0 |
| 20260506023845 | 10 | 0 | 0.0 | 8.0 | 0.23 | 1.17 | 1.17 | 96 | 1014.9 |
| 20260506022847 | 10 | 16 | 4.8 | 9.7 | 0.25 | 1.14 | 1.14 | 96 | 1015.0 |
| 20260506021845 | 10 | 39 | 3.2 | 8.0 | 0.25 | 1.07 | 1.07 | 96 | 1014.8 |
| 20260506020844 | 10 | 11 | 9.7 | 8.0 | 0.23 | 1.02 | 1.02 | 96 | 1014.7 |
| 20260506015845 | 10 | 347 | 3.2 | 8.0 | 0.18 | 0.97 | 0.97 | 96 | 1014.9 |
| 20260506014844 | 10 | 351 | 1.6 | 6.4 | 0.18 | 0.94 | 0.94 | 96 | 1014.7 |
| 20260506013845 | 10 | 0 | 0.0 | 8.0 | 0.23 | 0.91 | 0.91 | 96 | 1014.6 |
| 20260506012845 | 10 | 4 | 3.2 | 8.0 | 0.25 | 0.89 | 0.89 | 96 | 1014.3 |
| 20260506011845 | 10 | 359 | 4.8 | 8.0 | 0.25 | 0.81 | 0.81 | 96 | 1014.3 |
| 20260506010844 | 10 | 18 | 8.0 | 11.3 | 0.28 | 0.79 | 0.79 | 96 | 1014.6 |
| 20260506005845 | 11 | 351 | 4.8 | 11.3 | 0.51 | 0.76 | 0.76 | 96 | 1014.9 |
| 20260506004844 | 11 | 0 | 6.4 | 17.7 | 0.69 | 0.76 | 0.76 | 96 | 1015.4 |
| 20260506004004 | 11 | 15 | 6.4 | 9.7 | 0.64 | 0.69 | 0.69 | 96 | 1015.8 |
| 20260506003845 | 11 | 15 | 6.4 | 9.7 | 0.64 | 0.69 | 0.69 | 96 | 1015.8 |
| 20260506002844 | 11 | 9 | 9.7 | 8.0 | 0.53 | 0.61 | 0.61 | 95 | 1016.0 |
| 20260506001845 | 11 | 351 | 6.4 | 8.0 | 0.46 | 0.53 | 0.53 | 95 | 1015.8 |
| 20260506000848 | 11 | 14 | 3.2 | 17.7 | 0.43 | 0.48 | 0.48 | 95 | 1016.0 |
| 20260506000027 | 12 | 1 | 14.5 | 27.4 | 0.18 | 0.25 | 0.25 | 95 | 1016.1 |
| 20260505235845 | 12 | 1 | 14.5 | 27.4 | 0.18 | 0.25 | 0.25 | 95 | 1016.1 |
| 20260505234845 | 12 | 359 | 4.8 | 27.4 | 0.03 | 0.08 | 0.08 | 92 | 1015.9 |
| 20260505233847 | 13 | 343 | 16.1 | 17.7 | 0.00 | 0.05 | 0.05 | 92 | 1015.7 |
| 20260505231845 | 14 | 352 | 9.7 | 9.7 | 0.00 | 0.05 | 0.05 | 92 | 1015.8 |
| 20260505230845 | 15 | 341 | 8.0 | 12.9 | 0.00 | 0.05 | 0.05 | 91 | 1015.8 |
| 20260505225845 | 15 | 319 | 3.2 | 11.3 | 0.00 | 0.05 | 0.05 | 90 | 1015.9 |
| 20260505224844 | 15 | 26 | 8.0 | 11.3 | 0.00 | 0.03 | 0.03 | 90 | 1016.2 |
| 20260505224001 | 15 | 2 | 4.8 | 9.7 | 0.00 | 0.03 | 0.03 | 89 | 1016.6 |
| 20260505223845 | 15 | 2 | 4.8 | 9.7 | 0.00 | 0.03 | 0.03 | 89 | 1016.6 |
| 20260505222844 | 15 | 350 | 3.2 | 11.3 | 0.00 | 0.03 | 0.03 | 89 | 1016.8 |
| 20260505221845 | 15 | 9 | 6.4 | 9.7 | 0.00 | 0.03 | 0.03 | 88 | 1016.9 |
| 20260505220844 | 15 | 0 | 0.0 | 16.1 | 0.00 | 0.03 | 0.03 | 88 | 1017.1 |
| 20260505215845 | 16 | 337 | 16.1 | 14.5 | 0.00 | 0.03 | 0.03 | 88 | 1017.3 |
| 20260505214844 | 16 | 348 | 8.0 | 11.3 | 0.00 | 0.03 | 0.03 | 87 | 1016.8 |
| 20260505213845 | 16 | 0 | 0.0 | 9.7 | 0.00 | 0.03 | 0.03 | 86 | 1016.7 |
| 20260505212844 | 16 | 355 | 6.4 | 11.3 | 0.00 | 0.03 | 0.03 | 84 | 1016.9 |
| 20260505211845 | 17 | 359 | 6.4 | 1.6 | 0.00 | 0.03 | 0.03 | 83 | 1017.1 |
| 20260505210845 | 17 | 276 | 1.6 | 6.4 | 0.00 | 0.03 | 0.03 | 79 | 1017.2 |
| 20260505210123 | 17 | 0 | 0.0 | 8.0 | 0.00 | 0.03 | 0.03 | 78 | 1017.1 |
| 20260505205845 | 17 | 0 | 0.0 | 8.0 | 0.00 | 0.03 | 0.03 | 78 | 1017.1 |
| 20260505204844 | 17 | 324 | 4.8 | 11.3 | 0.00 | 0.03 | 0.03 | 76 | 1016.7 |
| 20260505203845 | 18 | 18 | 3.2 | 8.0 | 0.00 | 0.03 | 0.03 | 74 | 1016.6 |
| 20260505202844 | 18 | 347 | 3.2 | 3.2 | 0.00 | 0.03 | 0.03 | 72 | 1016.6 |
| 20260505200849 | 18 | 247 | 0.0 | 9.7 | 0.00 | 0.03 | 0.03 | 69 | 1016.8 |
| 20260505195845 | 18 | 338 | 1.6 | 1.6 | 0.00 | 0.03 | 0.03 | 70 | 1016.7 |
| 20260505194844 | 18 | 279 | 1.6 | 6.4 | 0.00 | 0.03 | 0.03 | 70 | 1016.7 |
| 20260505193845 | 18 | 203 | 0.0 | 1.6 | 0.00 | 0.03 | 0.03 | 71 | 1016.8 |
| 20260505192844 | 18 | 0 | 0.0 | 1.6 | 0.00 | 0.03 | 0.03 | 72 | 1016.9 |
| 20260505191847 | 18 | 208 | 0.0 | 12.9 | 0.00 | 0.03 | 0.03 | 70 | 1017.1 |
| 20260505190844 | 19 | 217 | 4.8 | 11.3 | 0.00 | 0.03 | 0.03 | 65 | 1017.1 |
| 20260505185845 | 20 | 0 | 0.0 | 14.5 | 0.00 | 0.03 | 0.03 | 63 | 1016.9 |
| 20260505184844 | 20 | 182 | 3.2 | 11.3 | 0.00 | 0.03 | 0.03 | 62 | 1016.8 |
| 20260505183844 | 20 | 282 | 1.6 | 6.4 | 0.00 | 0.03 | 0.03 | 61 | 1016.7 |
| 20260505182844 | 20 | 204 | 3.2 | 14.5 | 0.00 | 0.03 | 0.03 | 60 | 1016.6 |
| 20260505181845 | 20 | 0 | 0.0 | 12.9 | 0.00 | 0.03 | 0.03 | 62 | 1016.4 |
| 20260505180844 | 20 | 214 | 6.4 | 17.7 | 0.00 | 0.03 | 0.03 | 62 | 1016.3 |
| 20260505175845 | 20 | 200 | 1.6 | 11.3 | 0.00 | 0.03 | 0.03 | 62 | 1016.1 |
| 20260505174844 | 20 | 213 | 9.7 | 12.9 | 0.00 | 0.03 | 0.03 | 63 | 1016.0 |
| 20260505173845 | 20 | 200 | 4.8 | 14.5 | 0.00 | 0.03 | 0.03 | 61 | 1016.0 |
| 20260505172845 | 20 | 196 | 4.8 | 20.9 | 0.00 | 0.03 | 0.03 | 61 | 1016.1 |
| 20260505171845 | 20 | 204 | 11.3 | 11.3 | 0.00 | 0.03 | 0.03 | 61 | 1016.1 |
| 20260505170844 | 20 | 278 | 8.0 | 11.3 | 0.00 | 0.03 | 0.03 | 58 | 1016.2 |
| 20260505165845 | 21 | 204 | 3.2 | 14.5 | 0.00 | 0.03 | 0.03 | 57 | 1016.2 |
| 20260505164844 | 21 | 266 | 11.3 | 16.1 | 0.00 | 0.03 | 0.03 | 55 | 1016.2 |
| 20260505163845 | 22 | 165 | 1.6 | 19.3 | 0.00 | 0.03 | 0.03 | 57 | 1016.2 |
| 20260505162845 | 22 | 247 | 6.4 | 24.1 | 0.00 | 0.03 | 0.03 | 55 | 1016.1 |
| 20260505161845 | 21 | 235 | 3.2 | 19.3 | 0.00 | 0.03 | 0.03 | 55 | 1016.0 |
| 20260505160844 | 21 | 187 | 4.8 | 24.1 | 0.00 | 0.03 | 0.03 | 56 | 1016.0 |
| 20260505152845 | 20 | 207 | 6.4 | 16.1 | 0.00 | 0.03 | 0.03 | 60 | 1016.4 |
| 20260505151845 | 20 | 203 | 8.0 | 20.9 | 0.00 | 0.03 | 0.03 | 62 | 1016.1 |
| 20260505150844 | 20 | 199 | 17.7 | 30.6 | 0.00 | 0.03 | 0.03 | 61 | 1016.2 |